Location: Earls Croome
(52.0667°N, 2.2000°W)
Time: 01:59:47
(UTC+00:00)

SL-4 R/B - Pass Details

Date: 17 November 2019
Orbit: 428 x 667 km, 51.6° (Epoch: 09 December)

Event Time Altitude Azimuth Distance (km) Brightness Sun altitude
Exits shadow 05:35:21 32° 261° (W) 1,134 3.1 -17.6°
Maximum altitude 05:37:12 51° 205° (SSW) 842 2.8 -17.3°
Drops below altitude 10° 05:41:52 10° 130° (SE) 2,074 5.9 -16.6°
Sets 05:44:13 0° 126° (SE) 2,967 7.0 -16.2°
